Time,TemperatureF,DewpointF,PressureIn,WindDirection,WindDirectionDegrees,WindSpeedMPH,WindSpeedGustMPH,Humidity,HourlyPrecipIn,Conditions,Clouds,dailyrainin,SoftwareType,DateUTC
2013-02-07 00:02:00,47.0,28.0,30.21,NNE,25,5.0,7.0,48,0.00,,,0.00,,2013-02-07 05:02:00,
2013-02-07 00:12:00,47.0,28.0,30.21,NNE,25,5.0,7.0,48,0.00,,,0.00,,2013-02-07 05:12:00,
2013-02-07 00:21:00,48.0,28.0,30.21,NNE,18,5.0,9.0,46,0.00,,,0.00,,2013-02-07 05:21:00,
2013-02-07 00:32:00,47.0,28.0,30.20,ENE,75,4.0,10.0,47,0.00,,,0.00,,2013-02-07 05:32:00,
2013-02-07 00:42:00,47.0,28.0,30.20,ENE,75,4.0,10.0,47,0.00,,,0.00,,2013-02-07 05:42:00,
2013-02-07 00:52:00,48.0,29.0,30.20,ENE,66,7.0,11.0,47,0.00,,,0.00,,2013-02-07 05:52:00,
2013-02-07 01:02:00,47.0,29.0,30.21,ENE,76,4.0,10.0,49,0.00,,,0.00,,2013-02-07 06:02:00,
2013-02-07 01:11:00,47.0,29.0,30.21,ENE,76,4.0,10.0,49,0.00,,,0.00,,2013-02-07 06:11:00,
2013-02-07 01:22:00,46.0,28.0,30.21,NE,37,3.0,8.0,50,0.00,,,0.00,,2013-02-07 06:22:00,
2013-02-07 01:32:00,46.0,29.0,30.20,NNE,14,5.0,9.0,51,0.00,,,0.00,,2013-02-07 06:32:00,
2013-02-07 01:43:00,46.0,29.0,30.20,NNE,14,5.0,9.0,51,0.00,,,0.00,,2013-02-07 06:43:00,
2013-02-07 01:52:00,46.0,29.0,30.21,NNE,31,6.0,9.0,52,0.00,,,0.00,,2013-02-07 06:52:00,
2013-02-07 02:01:00,46.0,29.0,30.21,NNE,32,3.0,8.0,52,0.00,,,0.00,,2013-02-07 07:01:00,
2013-02-07 02:11:00,46.0,30.0,30.22,NE,52,3.0,8.0,53,0.00,,,0.00,,2013-02-07 07:11:00,
2013-02-07 02:22:00,46.0,30.0,30.22,NE,52,3.0,8.0,53,0.00,,,0.00,,2013-02-07 07:22:00,
2013-02-07 02:32:00,46.0,30.0,30.22,NE,44,4.0,7.0,53,0.00,,,0.00,,2013-02-07 07:32:00,
2013-02-07 02:42:00,46.0,30.0,30.22,NE,44,4.0,7.0,53,0.00,,,0.00,,2013-02-07 07:42:00,
2013-02-07 02:52:00,46.0,30.0,30.21,NNE,32,5.0,8.0,53,0.00,,,0.00,,2013-02-07 07:52:00,
2013-02-07 03:01:00,46.0,30.0,30.21,NE,35,5.0,8.0,53,0.00,,,0.00,,2013-02-07 08:01:00,
2013-02-07 03:11:00,46.0,30.0,30.21,NE,35,5.0,8.0,53,0.00,,,0.00,,2013-02-07 08:11:00,
2013-02-07 03:22:00,45.0,29.0,30.21,NE,48,4.0,7.0,54,0.00,,,0.00,,2013-02-07 08:22:00,
2013-02-07 03:32:00,45.0,30.0,30.22,NNE,32,2.0,6.0,56,0.00,,,0.00,,2013-02-07 08:32:00,
2013-02-07 03:42:00,45.0,30.0,30.22,NNE,32,2.0,6.0,56,0.00,,,0.00,,2013-02-07 08:42:00,
2013-02-07 03:52:00,45.0,30.0,30.22,NNE,25,3.0,8.0,56,0.00,,,0.00,,2013-02-07 08:52:00,
2013-02-07 04:02:00,45.0,31.0,30.21,ENE,75,4.0,8.0,58,0.00,,,0.00,,2013-02-07 09:02:00,
2013-02-07 04:11:00,45.0,32.0,30.22,NE,35,6.0,10.0,61,0.00,,,0.00,,2013-02-07 09:11:00,
2013-02-07 04:21:00,45.0,32.0,30.22,NE,35,6.0,10.0,61,0.00,,,0.00,,2013-02-07 09:21:00,
2013-02-07 04:32:00,45.0,33.0,30.22,East,82,4.0,8.0,63,0.00,,,0.00,,2013-02-07 09:32:00,
2013-02-07 04:42:00,45.0,33.0,30.22,East,82,4.0,8.0,63,0.00,,,0.00,,2013-02-07 09:42:00,
2013-02-07 04:52:00,44.0,33.0,30.22,NE,35,4.0,10.0,65,0.00,,,0.00,,2013-02-07 09:52:00,
2013-02-07 05:02:00,44.0,34.0,30.24,NNE,28,4.0,11.0,67,0.00,,,0.00,,2013-02-07 10:02:00,
2013-02-07 05:11:00,44.0,34.0,30.24,NNE,28,4.0,11.0,67,0.00,,,0.00,,2013-02-07 10:11:00,
2013-02-07 05:22:00,43.0,34.0,30.24,NE,49,4.0,8.0,70,0.00,,,0.00,,2013-02-07 10:22:00,
2013-02-07 05:32:00,43.0,35.0,30.24,NE,34,5.0,9.0,73,0.00,,,0.00,,2013-02-07 10:32:00,
2013-02-07 05:42:00,43.0,35.0,30.24,NE,34,5.0,9.0,73,0.00,,,0.00,,2013-02-07 10:42:00,
2013-02-07 05:52:00,43.0,36.0,30.25,North,10,6.0,10.0,76,0.00,,,0.00,,2013-02-07 10:52:00,
2013-02-07 06:01:00,43.0,37.0,30.25,NNE,24,3.0,11.0,80,0.00,,,0.00,,2013-02-07 11:01:00,
2013-02-07 06:11:00,43.0,37.0,30.25,NNE,24,3.0,11.0,80,0.00,,,0.00,,2013-02-07 11:11:00,
2013-02-07 06:23:00,43.0,38.0,30.26,NE,53,4.0,9.0,82,0.00,,,0.00,,2013-02-07 11:23:00,
2013-02-07 06:32:00,42.0,38.0,30.26,NNE,27,6.0,9.0,85,0.00,,,0.00,,2013-02-07 11:32:00,
2013-02-07 06:44:00,42.0,38.0,30.26,NNE,27,6.0,9.0,85,0.00,,,0.00,,2013-02-07 11:44:00,
2013-02-07 06:53:00,41.0,37.0,30.26,NE,35,1.0,9.0,84,0.00,,,0.00,,2013-02-07 11:53:00,
2013-02-07 07:02:00,41.0,37.0,30.26,North,359,1.0,11.0,87,0.00,,,0.00,,2013-02-07 12:02:00,
2013-02-07 07:11:00,41.0,37.0,30.26,North,359,1.0,11.0,87,0.00,,,0.00,,2013-02-07 12:11:00,
2013-02-07 07:22:00,40.0,37.0,30.27,North,359,4.0,8.0,90,0.00,,,0.00,,2013-02-07 12:22:00,
2013-02-07 07:33:00,40.0,38.0,30.26,North,3,4.0,10.0,93,0.00,,,0.00,,2013-02-07 12:33:00,
2013-02-07 07:42:00,40.0,38.0,30.26,North,3,4.0,10.0,93,0.00,,,0.00,,2013-02-07 12:42:00,
2013-02-07 07:53:00,40.0,38.0,30.27,North,3,6.0,9.0,94,0.00,,,0.00,,2013-02-07 12:53:00,
2013-02-07 08:03:00,40.0,39.0,30.27,North,6,5.0,9.0,95,0.00,,,0.00,,2013-02-07 13:03:00,
2013-02-07 08:12:00,40.0,39.0,30.27,North,6,5.0,9.0,95,0.00,,,0.00,,2013-02-07 13:12:00,
2013-02-07 08:22:00,40.0,39.0,30.27,North,1,5.0,10.0,95,0.00,,,0.00,,2013-02-07 13:22:00,
2013-02-07 08:32:00,40.0,39.0,30.27,North,359,6.0,11.0,95,0.00,,,0.00,,2013-02-07 13:32:00,
2013-02-07 08:42:00,40.0,39.0,30.27,North,359,6.0,11.0,95,0.00,,,0.00,,2013-02-07 13:42:00,
2013-02-07 08:52:00,41.0,40.0,30.28,ENE,60,9.0,15.0,95,0.00,,,0.00,,2013-02-07 13:52:00,
2013-02-07 09:01:00,41.0,40.0,30.28,North,4,7.0,11.0,95,0.00,,,0.00,,2013-02-07 14:01:00,
2013-02-07 09:11:00,41.0,40.0,30.28,North,4,7.0,11.0,95,0.00,,,0.00,,2013-02-07 14:11:00,
2013-02-07 09:22:00,41.0,40.0,30.28,West,262,6.0,13.0,95,0.00,,,0.00,,2013-02-07 14:22:00,
2013-02-07 09:32:00,41.0,40.0,30.27,North,359,4.0,13.0,96,0.00,,,0.00,,2013-02-07 14:32:00,
2013-02-07 09:42:00,41.0,40.0,30.27,North,359,4.0,13.0,96,0.00,,,0.00,,2013-02-07 14:42:00,
2013-02-07 09:52:00,42.0,41.0,30.28,NNE,25,8.0,15.0,95,0.00,,,0.00,,2013-02-07 14:52:00,
2013-02-07 10:02:00,42.0,41.0,30.27,NNE,32,6.0,11.0,95,0.00,,,0.00,,2013-02-07 15:02:00,
2013-02-07 10:11:00,42.0,41.0,30.27,NNE,32,6.0,11.0,95,0.00,,,0.00,,2013-02-07 15:11:00,
2013-02-07 10:22:00,42.0,40.0,30.25,North,1,8.0,12.0,94,0.00,,,0.00,,2013-02-07 15:22:00,
2013-02-07 10:32:00,43.0,41.0,30.25,ESE,113,6.0,13.0,93,0.00,,,0.00,,2013-02-07 15:32:00,
2013-02-07 10:42:00,43.0,41.0,30.25,ESE,113,6.0,13.0,93,0.00,,,0.00,,2013-02-07 15:42:00,
2013-02-07 10:52:00,44.0,41.0,30.24,North,359,7.0,15.0,89,0.00,,,0.00,,2013-02-07 15:52:00,
2013-02-07 11:01:00,44.0,41.0,30.24,NNE,28,7.0,14.0,89,0.00,,,0.00,,2013-02-07 16:01:00,
2013-02-07 11:11:00,44.0,41.0,30.24,NNE,28,7.0,14.0,89,0.00,,,0.00,,2013-02-07 16:11:00,
2013-02-07 11:22:00,44.0,41.0,30.23,NE,51,7.0,13.0,88,0.00,,,0.00,,2013-02-07 16:22:00,
2013-02-07 11:32:00,45.0,41.0,30.22,NNE,24,9.0,15.0,86,0.00,,,0.00,,2013-02-07 16:32:00,
2013-02-07 11:42:00,45.0,41.0,30.22,NNE,24,9.0,15.0,86,0.00,,,0.00,,2013-02-07 16:42:00,
2013-02-07 11:52:00,45.0,41.0,30.22,North,359,7.0,16.0,85,0.00,,,0.00,,2013-02-07 16:52:00,
2013-02-07 12:01:00,45.0,41.0,30.21,NE,38,8.0,15.0,87,0.00,,,0.00,,2013-02-07 17:01:00,
2013-02-07 12:11:00,45.0,41.0,30.21,North,359,6.0,9.0,85,0.00,,,0.00,,2013-02-07 17:11:00,
2013-02-07 12:21:00,45.0,41.0,30.21,North,359,6.0,9.0,85,0.00,,,0.00,,2013-02-07 17:21:00,
2013-02-07 12:32:00,45.0,42.0,30.20,North,359,8.0,12.0,88,0.00,,,0.00,,2013-02-07 17:32:00,
2013-02-07 12:43:00,45.0,42.0,30.20,North,359,8.0,12.0,88,0.00,,,0.00,,2013-02-07 17:43:00,
2013-02-07 12:52:00,45.0,41.0,30.19,NNE,27,0.0,11.0,86,0.00,,,0.00,,2013-02-07 17:52:00,
2013-02-07 13:02:00,45.0,41.0,30.17,North,359,0.0,10.0,86,0.00,,,0.00,,2013-02-07 18:02:00,
2013-02-07 13:11:00,45.0,41.0,30.17,North,359,0.0,10.0,86,0.00,,,0.00,,2013-02-07 18:11:00,
2013-02-07 13:23:00,46.0,42.0,30.16,North,359,3.0,10.0,86,0.00,,,0.00,,2013-02-07 18:23:00,
2013-02-07 13:32:00,45.0,41.0,30.15,North,11,0.0,0.0,85,0.00,,,0.00,,2013-02-07 18:32:00,
2013-02-07 13:42:00,45.0,41.0,30.15,North,11,0.0,0.0,85,0.00,,,0.00,,2013-02-07 18:42:00,
2013-02-07 13:52:00,45.0,42.0,30.15,NNW,340,0.0,0.0,88,0.00,,,0.00,,2013-02-07 18:52:00,
2013-02-07 14:01:00,45.0,41.0,30.15,NNW,340,0.0,0.0,87,0.00,,,0.00,,2013-02-07 19:01:00,
2013-02-07 14:11:00,45.0,41.0,30.14,North,359,0.0,7.0,87,0.00,,,0.00,,2013-02-07 19:11:00,
2013-02-07 14:22:00,45.0,41.0,30.14,North,359,0.0,7.0,87,0.00,,,0.00,,2013-02-07 19:22:00,
2013-02-07 14:32:00,45.0,42.0,30.14,North,359,0.0,0.0,88,0.00,,,0.00,,2013-02-07 19:32:00,
2013-02-07 14:42:00,45.0,42.0,30.14,North,359,0.0,0.0,88,0.00,,,0.00,,2013-02-07 19:42:00,
2013-02-07 14:52:00,45.0,43.0,30.14,North,359,0.0,0.0,92,0.00,,,0.00,,2013-02-07 19:52:00,
2013-02-07 15:01:00,45.0,44.0,30.13,North,359,0.0,9.0,96,0.00,,,0.00,,2013-02-07 20:01:00,
2013-02-07 15:11:00,45.0,44.0,30.13,North,359,0.0,9.0,96,0.00,,,0.00,,2013-02-07 20:11:00,
2013-02-07 15:22:00,44.0,43.0,30.13,North,359,0.0,0.0,96,0.00,,,0.00,,2013-02-07 20:22:00,
2013-02-07 15:32:00,44.0,43.0,30.13,North,359,0.0,0.0,97,0.00,,,0.00,,2013-02-07 20:32:00,
2013-02-07 15:42:00,44.0,43.0,30.13,North,359,0.0,0.0,97,0.00,,,0.00,,2013-02-07 20:42:00,
2013-02-07 15:52:00,43.0,43.0,30.12,North,359,0.0,0.0,99,0.00,,,0.00,,2013-02-07 20:52:00,
2013-02-07 16:02:00,43.0,43.0,30.12,North,359,0.0,0.0,99,0.00,,,0.00,,2013-02-07 21:02:00,
2013-02-07 16:11:00,43.0,43.0,30.12,North,359,0.0,0.0,99,0.00,,,0.00,,2013-02-07 21:11:00,
2013-02-07 16:21:00,43.0,43.0,30.12,North,359,0.0,0.0,100,0.00,,,0.00,,2013-02-07 21:21:00,
2013-02-07 16:32:00,42.0,42.0,30.11,North,359,0.0,0.0,100,0.00,,,0.00,,2013-02-07 21:32:00,
2013-02-07 16:42:00,42.0,42.0,30.11,North,359,0.0,0.0,100,0.00,,,0.00,,2013-02-07 21:42:00,
2013-02-07 16:52:00,42.0,42.0,30.11,North,359,0.0,0.0,100,0.00,,,0.00,,2013-02-07 21:52:00,
2013-02-07 17:02:00,42.0,42.0,30.10,North,359,0.0,0.0,100,0.00,,,0.00,,2013-02-07 22:02:00,
2013-02-07 17:11:00,42.0,42.0,30.09,North,359,0.0,0.0,100,0.00,,,0.00,,2013-02-07 22:11:00,
2013-02-07 17:21:00,42.0,42.0,30.09,North,359,0.0,0.0,100,0.00,,,0.00,,2013-02-07 22:21:00,
2013-02-07 17:32:00,42.0,42.0,30.08,North,359,0.0,0.0,100,0.00,,,0.00,,2013-02-07 22:32:00,
2013-02-07 17:42:00,42.0,42.0,30.08,North,359,0.0,0.0,100,0.00,,,0.00,,2013-02-07 22:42:00,
2013-02-07 17:52:00,41.0,41.0,30.07,North,359,0.0,0.0,100,0.00,,,0.00,,2013-02-07 22:52:00,
2013-02-07 18:01:00,41.0,41.0,30.07,North,359,0.0,0.0,100,0.00,,,0.00,,2013-02-07 23:01:00,
2013-02-07 18:11:00,41.0,41.0,30.07,North,359,0.0,0.0,100,0.00,,,0.00,,2013-02-07 23:11:00,
2013-02-07 18:22:00,41.0,41.0,30.06,North,359,0.0,0.0,100,0.00,,,0.00,,2013-02-07 23:22:00,
2013-02-07 18:32:00,41.0,41.0,30.06,North,359,0.0,0.0,100,0.01,,,0.00,,2013-02-07 23:32:00,
2013-02-07 18:42:00,41.0,41.0,30.06,North,359,0.0,0.0,100,0.01,,,0.00,,2013-02-07 23:42:00,
2013-02-07 18:52:00,40.0,40.0,30.06,North,359,0.0,0.0,100,0.01,,,0.00,,2013-02-07 23:52:00,
2013-02-07 19:02:00,41.0,41.0,30.06,North,359,0.0,0.0,100,0.02,,,0.00,,2013-02-08 00:02:00,
2013-02-07 19:11:00,41.0,41.0,30.06,North,359,0.0,0.0,100,0.02,,,0.00,,2013-02-08 00:11:00,
2013-02-07 19:22:00,40.0,40.0,30.06,North,359,0.0,0.0,100,0.03,,,0.00,,2013-02-08 00:22:00,
2013-02-07 19:32:00,40.0,40.0,30.06,North,359,0.0,0.0,100,0.02,,,0.00,,2013-02-08 00:32:00,
2013-02-07 19:42:00,40.0,40.0,30.06,North,359,0.0,0.0,100,0.02,,,0.00,,2013-02-08 00:42:00,
2013-02-07 19:52:00,40.0,40.0,30.06,North,359,0.0,0.0,100,0.03,,,0.00,,2013-02-08 00:52:00,
2013-02-07 20:01:00,40.0,40.0,30.06,North,359,0.0,0.0,100,0.03,,,0.00,,2013-02-08 01:01:00,
2013-02-07 20:11:00,40.0,40.0,30.06,North,359,0.0,0.0,100,0.03,,,0.00,,2013-02-08 01:11:00,
2013-02-07 20:21:00,40.0,40.0,30.05,North,359,0.0,0.0,100,0.04,,,0.00,,2013-02-08 01:21:00,
2013-02-07 20:32:00,40.0,40.0,30.04,North,359,0.0,0.0,100,0.05,,,0.00,,2013-02-08 01:32:00,
2013-02-07 20:41:00,40.0,40.0,30.04,North,359,0.0,0.0,100,0.05,,,0.00,,2013-02-08 01:41:00,
2013-02-07 20:52:00,40.0,40.0,30.04,North,359,0.0,0.0,100,0.05,,,0.00,,2013-02-08 01:52:00,
2013-02-07 21:01:00,40.0,40.0,30.03,North,359,0.0,0.0,100,0.06,,,0.00,,2013-02-08 02:01:00,
2013-02-07 21:11:00,40.0,40.0,30.03,North,359,0.0,0.0,100,0.06,,,0.00,,2013-02-08 02:11:00,
2013-02-07 21:21:00,40.0,40.0,30.03,North,359,0.0,0.0,100,0.05,,,0.00,,2013-02-08 02:21:00,
2013-02-07 21:32:00,40.0,40.0,30.03,North,359,0.0,0.0,100,0.06,,,0.00,,2013-02-08 02:32:00,
2013-02-07 21:42:00,40.0,40.0,30.03,North,359,0.0,0.0,100,0.06,,,0.00,,2013-02-08 02:42:00,
2013-02-07 21:52:00,41.0,41.0,30.02,North,359,0.0,1.0,100,0.07,,,0.00,,2013-02-08 02:52:00,
2013-02-07 22:02:00,41.0,41.0,30.01,North,359,0.0,0.0,100,0.06,,,0.00,,2013-02-08 03:02:00,
2013-02-07 22:12:00,41.0,41.0,30.01,North,359,0.0,0.0,100,0.06,,,0.00,,2013-02-08 03:12:00,
2013-02-07 22:22:00,41.0,41.0,30.01,North,359,0.0,0.0,100,0.08,,,0.00,,2013-02-08 03:22:00,
2013-02-07 22:32:00,41.0,41.0,30.01,North,359,0.0,0.0,100,0.08,,,0.00,,2013-02-08 03:32:00,
2013-02-07 22:42:00,41.0,41.0,30.01,North,359,0.0,0.0,100,0.08,,,0.00,,2013-02-08 03:42:00,
2013-02-07 22:52:00,41.0,41.0,30.00,North,359,0.0,0.0,100,0.09,,,0.00,,2013-02-08 03:52:00,
2013-02-07 23:02:00,41.0,41.0,29.99,North,359,0.0,0.0,100,0.11,,,0.00,,2013-02-08 04:02:00,
2013-02-07 23:11:00,41.0,41.0,29.99,North,359,0.0,0.0,100,0.11,,,0.00,,2013-02-08 04:11:00,
2013-02-07 23:21:00,41.0,41.0,29.98,North,359,0.0,0.0,100,0.11,,,0.00,,2013-02-08 04:21:00,
2013-02-07 23:32:00,41.0,41.0,29.98,North,359,0.0,0.0,100,0.11,,,0.00,,2013-02-08 04:32:00,
2013-02-07 23:42:00,41.0,41.0,29.98,North,359,0.0,0.0,100,0.11,,,0.00,,2013-02-08 04:42:00,
2013-02-07 23:52:00,41.0,41.0,29.98,North,359,0.0,0.0,100,0.10,,,0.00,,2013-02-08 04:52:00,